This is the latest recevied weather packets stored in our database for station/object IW3HBX-3. If no packets are shown the sender has not sent any weather packets the latest 1 day(s).
| Time | Temp. | Humidity | Pressure | Rain* | Wind** | Luminosity | Snow |
|---|---|---|---|---|---|---|---|
| 1788619466 | 32.22° C | 45% | 1016 hPa | 0 mm | - | 359 W/m² | - |
| 1788619165 | 33.33° C | 44% | 1016.1 hPa | 0 mm | - | 373 W/m² | - |
| 1788618865 | 33.33° C | 45% | 1016.2 hPa | 0 mm | - | 385 W/m² | - |
| 1788618565 | 33.33° C | 44% | 1016.1 hPa | 0 mm | - | 397 W/m² | - |
| 1788618265 | 32.78° C | 43% | 1016.1 hPa | 0 mm | - | 415 W/m² | - |
| 1788617965 | 32.22° C | 45% | 1016.1 hPa | 0 mm | - | 433 W/m² | - |
| 1788617665 | 31.67° C | 46% | 1016.2 hPa | 0 mm | - | 445 W/m² | - |
| 1788617365 | 31.67° C | 46% | 1016.1 hPa | 0 mm | - | 466 W/m² | - |
| 1788617065 | 31.11° C | 48% | 1016.2 hPa | 0 mm | - | 464 W/m² | - |
| 1788616765 | 31.11° C | 48% | 1016.3 hPa | 0 mm | - | 485 W/m² | - |
| 1788616465 | 32.22° C | 46% | 1016.3 hPa | 0 mm | - | 502 W/m² | - |
| 1788616165 | 32.22° C | 46% | 1016.3 hPa | 0 mm | - | 513 W/m² | - |
| 1788615864 | 32.22° C | 50% | 1016.3 hPa | 0 mm | - | 523 W/m² | - |
| 1788615565 | 31.67° C | 49% | 1016.4 hPa | 0 mm | - | 535 W/m² | - |
| 1788615264 | 31.67° C | 48% | 1016.4 hPa | 0 mm | - | 547 W/m² | - |
| 1788614964 | 31.67° C | 48% | 1016.5 hPa | 0 mm | - | 560 W/m² | - |
| 1788614664 | 30.56° C | 51% | 1016.5 hPa | 0 mm | - | 565 W/m² | - |
| 1788614364 | 32.22° C | 50% | 1016.5 hPa | 0 mm | - | 587 W/m² | - |
| 1788614064 | 32.22° C | 49% | 1016.5 hPa | 0 mm | - | 592 W/m² | - |
| 1788613764 | 31.67° C | 49% | 1016.6 hPa | 0 mm | - | 602 W/m² | - |
| 1788613464 | 31.11° C | 49% | 1016.7 hPa | 0 mm | - | 607 W/m² | - |
| 1788613164 | 31.67° C | 51% | 1016.7 hPa | 0 mm | - | 612 W/m² | - |
| 1788612864 | 31.11° C | 49% | 1016.8 hPa | 0 mm | - | 629 W/m² | - |
| 1788612564 | 30.56° C | 51% | 1016.8 hPa | 0 mm | - | 632 W/m² | - |
| 1788612264 | 30.56° C | 51% | 1016.8 hPa | 0 mm | - | 596 W/m² | - |
* Rain latest hour (hover to see other rain measurements)
** Current wind speed in m/s (hover to see current wind gust speed)